THY2GF UACC-LTFM

Flight info

Callsign THY2GF
Flight time N/A
Altitude 32000
Route OSROL1B OSROL L988 BEKOR N55 BALUN/N0460F320 T916 LEYLA N644 LAGAS DCT SARPI UM10 HAKAN UN644 GUMRU UT315 NUGBA
Aircraft B738/M-SDE2E3FGHIRWXY/LB1

Departure

Time 2026-04-26 15:59
Airport Nursultan Nazarbayev International Airport (UACC)

Arrival

Time N/A
Airport İstanbul Airport (LTFM)
Time Latitude Longitude Altitude Speed Heading
2026-04-26 15:42 51.02669 71.46225 1169 ft 0 kts 314°
2026-04-26 15:51 51.02657 71.46243 1169 ft 2 kts 314°
2026-04-26 15:51 51.02651 71.46255 1169 ft 2 kts 315°
2026-04-26 15:51 51.02635 71.46278 1169 ft 2 kts 334°
2026-04-26 15:51 51.02620 71.46282 1169 ft 2 kts
2026-04-26 15:52 51.02606 71.46275 1168 ft 2 kts 34°
2026-04-26 15:52 51.02602 71.46272 1168 ft 0 kts 42°
2026-04-26 15:52 51.02597 71.46263 1168 ft 0 kts 45°
2026-04-26 15:53 51.02598 71.46263 1168 ft 0 kts 45°
2026-04-26 15:54 51.02624 71.46329 1170 ft 10 kts 75°
2026-04-26 15:54 51.02634 71.46448 1170 ft 9 kts 73°
2026-04-26 15:54 51.02669 71.46519 1170 ft 7 kts 43°
2026-04-26 15:54 51.02707 71.46590 1171 ft 8 kts 66°
2026-04-26 15:55 51.02680 71.46675 1170 ft 10 kts 133°
2026-04-26 15:55 51.02653 71.46764 1168 ft 9 kts 79°
2026-04-26 15:55 51.02693 71.46842 1167 ft 10 kts 44°
2026-04-26 15:55 51.02749 71.46930 1167 ft 12 kts 44°
2026-04-26 15:56 51.02816 71.47033 1167 ft 14 kts 43°
2026-04-26 15:56 51.02893 71.47153 1166 ft 16 kts 44°
2026-04-26 15:56 51.02983 71.47297 1164 ft 19 kts 45°
2026-04-26 15:56 51.03081 71.47452 1164 ft 20 kts 44°
2026-04-26 15:57 51.03186 71.47618 1164 ft 21 kts 44°
2026-04-26 15:57 51.03297 71.47789 1164 ft 22 kts 43°
2026-04-26 15:57 51.03406 71.47961 1164 ft 20 kts 51°
2026-04-26 15:57 51.03423 71.48095 1164 ft 17 kts 88°
2026-04-26 15:58 51.03424 71.48137 1164 ft 0 kts 88°
2026-04-26 15:58 51.03424 71.48149 1164 ft 5 kts 88°
2026-04-26 15:58 51.03415 71.48280 1164 ft 17 kts 125°
2026-04-26 15:58 51.03326 71.48292 1164 ft 13 kts 220°
2026-04-26 15:59 51.03199 71.48091 1164 ft 55 kts 226°
2026-04-26 15:59 51.02755 71.47398 1164 ft 122 kts 224°
2026-04-26 15:59 51.02004 71.46227 1212 ft 171 kts 225°
2026-04-26 15:59 51.01161 71.44917 1866 ft 172 kts 225°
2026-04-26 16:00 51.00290 71.43589 2398 ft 178 kts 228°
2026-04-26 16:00 50.99374 71.42150 2704 ft 195 kts 227°
2026-04-26 16:00 50.98331 71.40545 2899 ft 223 kts 227°
2026-04-26 16:00 50.97213 71.38792 3547 ft 231 kts 230°
2026-04-26 16:01 50.96048 71.36949 4146 ft 243 kts 231°
2026-04-26 16:01 50.95128 71.34700 4725 ft 244 kts 259°
2026-04-26 16:01 50.95191 71.32134 5569 ft 238 kts 289°
2026-04-26 16:01 50.95811 71.29667 6273 ft 244 kts 287°
2026-04-26 16:02 50.96155 71.27033 7024 ft 246 kts 280°
2026-04-26 16:02 50.96500 71.24345 7743 ft 251 kts 283°
2026-04-26 16:02 50.96910 71.21642 8481 ft 253 kts 283°
2026-04-26 16:02 50.97187 71.19846 8972 ft 254 kts 283°
2026-04-26 16:03 50.97762 71.16156 9909 ft 258 kts 283°
2026-04-26 16:03 50.98201 71.13368 10470 ft 267 kts 283°
2026-04-26 16:03 50.98673 71.10368 10557 ft 292 kts 283°
2026-04-26 16:03 50.99190 71.07094 10805 ft 310 kts 283°
2026-04-26 16:04 50.99737 71.03623 10866 ft 333 kts 283°
2026-04-26 16:04 51.00324 70.99979 11245 ft 344 kts 284°
2026-04-26 16:04 51.00959 70.96267 11738 ft 352 kts 284°
2026-04-26 16:04 51.01604 70.92496 12343 ft 355 kts 284°
2026-04-26 16:05 51.02191 70.88704 12632 ft 352 kts 278°
2026-04-26 16:05 51.02111 70.84767 13139 ft 358 kts 258°
2026-04-26 16:05 51.01280 70.81036 13651 ft 365 kts 249°
2026-04-26 16:05 51.00282 70.77278 14213 ft 368 kts 250°
2026-04-26 16:06 50.99315 70.73492 14790 ft 370 kts 250°
2026-04-26 16:06 50.98334 70.69660 15312 ft 373 kts 250°
2026-04-26 16:06 50.97353 70.65875 15911 ft 374 kts 250°
2026-04-26 16:06 50.96360 70.62056 16355 ft 378 kts 249°
2026-04-26 16:07 50.95360 70.58218 16927 ft 378 kts 249°
2026-04-26 16:07 50.94340 70.54313 17353 ft 382 kts 249°
2026-04-26 16:07 50.93321 70.50417 17859 ft 383 kts 249°
2026-04-26 16:07 50.92286 70.46468 18320 ft 385 kts 249°
2026-04-26 16:08 50.91252 70.42529 18715 ft 389 kts 249°
2026-04-26 16:08 50.90547 70.39849 19072 ft 388 kts 249°
2026-04-26 16:08 50.89159 70.34580 19543 ft 393 kts 248°
2026-04-26 16:08 50.88098 70.30566 20030 ft 394 kts 248°
2026-04-26 16:09 50.87033 70.26540 20384 ft 397 kts 248°
2026-04-26 16:09 50.85946 70.22437 20763 ft 400 kts 248°
2026-04-26 16:09 50.84945 70.18665 21191 ft 400 kts 248°
2026-04-26 16:09 50.83864 70.14601 21570 ft 402 kts 248°
2026-04-26 16:10 50.82769 70.10491 21981 ft 402 kts 248°
2026-04-26 16:10 50.81679 70.06390 22322 ft 405 kts 249°
2026-04-26 16:10 50.80723 70.02144 22639 ft 406 kts 255°
2026-04-26 16:10 50.80045 69.97749 23018 ft 407 kts 258°
2026-04-26 16:11 50.79411 69.93372 23314 ft 409 kts 257°
2026-04-26 16:11 50.78753 69.88906 23626 ft 411 kts 257°
2026-04-26 16:11 50.78112 69.84490 23941 ft 413 kts 257°
2026-04-26 16:11 50.77469 69.80001 24232 ft 414 kts 257°
2026-04-26 16:12 50.76833 69.75543 24522 ft 416 kts 257°
2026-04-26 16:12 50.76188 69.71023 24860 ft 416 kts 257°
2026-04-26 16:12 50.74907 69.62050 25343 ft 420 kts 257°
2026-04-26 16:13 50.74266 69.57568 25665 ft 420 kts 257°
2026-04-26 16:13 50.73610 69.52994 25904 ft 421 kts 257°
2026-04-26 16:13 50.72969 69.48528 26549 ft 413 kts 257°
2026-04-26 16:13 50.72327 69.44065 26640 ft 418 kts 257°
2026-04-26 16:14 50.71688 69.39635 27235 ft 410 kts 257°
2026-04-26 16:14 50.71047 69.35203 27491 ft 411 kts 257°
2026-04-26 16:14 50.69779 69.26470 28287 ft 406 kts 257°
2026-04-26 16:15 50.69144 69.22110 28471 ft 407 kts 257°
2026-04-26 16:15 50.68507 69.17757 29021 ft 401 kts 257°
2026-04-26 16:15 50.67880 69.13476 29178 ft 404 kts 257°
2026-04-26 16:16 50.66620 69.04910 29868 ft 399 kts 257°
2026-04-26 16:16 50.65978 69.00565 30034 ft 401 kts 257°
2026-04-26 16:16 50.65345 68.96300 30327 ft 399 kts 257°
2026-04-26 16:16 50.64711 68.92028 30558 ft 400 kts 257°
2026-04-26 16:17 50.64071 68.87738 30766 ft 400 kts 257°
2026-04-26 16:17 50.63435 68.83476 31005 ft 400 kts 256°
2026-04-26 16:17 50.62793 68.79196 31216 ft 400 kts 256°
2026-04-26 16:17 50.62143 68.74865 31435 ft 400 kts 256°
2026-04-26 16:18 50.61498 68.70583 31678 ft 399 kts 256°
2026-04-26 16:18 50.60210 68.62071 32070 ft 399 kts 256°
2026-04-26 16:19 50.58243 68.49149 32129 ft 401 kts 256°
2026-04-26 16:20 50.56275 68.36325 32129 ft 399 kts 256°
2026-04-26 16:20 50.54295 68.23530 32130 ft 399 kts 256°
2026-04-26 16:21 50.52977 68.15078 32129 ft 397 kts 256°
2026-04-26 16:21 50.51903 68.06500 32130 ft 397 kts 261°
2026-04-26 16:22 50.51062 67.97908 32129 ft 398 kts 260°
2026-04-26 16:22 50.50159 67.89335 32129 ft 398 kts 260°
2026-04-26 16:23 50.49244 67.80678 32129 ft 397 kts 260°
2026-04-26 16:23 50.48315 67.72003 32129 ft 397 kts 260°
2026-04-26 16:24 50.47393 67.63456 32129 ft 396 kts 260°
2026-04-26 16:24 50.46466 67.54935 32129 ft 396 kts 260°
2026-04-26 16:25 50.45529 67.46391 32129 ft 396 kts 260°
2026-04-26 16:25 50.44579 67.37788 32129 ft 399 kts 259°
2026-04-26 16:26 50.43783 67.30629 32169 ft 399 kts 259°
2026-04-26 16:26 50.42647 67.20565 32237 ft 399 kts 259°
2026-04-26 16:27 50.41686 67.12027 32237 ft 398 kts 259°
2026-04-26 16:27 50.40717 67.03453 32237 ft 398 kts 259°
2026-04-26 16:28 50.39739 66.94891 32237 ft 398 kts 259°
2026-04-26 16:28 50.38755 66.86334 32237 ft 398 kts 259°
2026-04-26 16:29 50.37769 66.77819 32237 ft 398 kts 259°
2026-04-26 16:29 50.36767 66.69235 32237 ft 398 kts 259°
2026-04-26 16:30 50.35771 66.60757 32237 ft 397 kts 259°
2026-04-26 16:30 50.34763 66.52234 32237 ft 398 kts 259°
2026-04-26 16:31 50.33747 66.43696 32237 ft 398 kts 259°
2026-04-26 16:31 50.32729 66.35200 32237 ft 398 kts 259°
2026-04-26 16:32 50.31874 66.28107 32237 ft 398 kts 258°
2026-04-26 16:32 50.30667 66.18164 32237 ft 396 kts 258°
2026-04-26 16:33 50.29630 66.09671 32237 ft 396 kts 258°
2026-04-26 16:33 50.28591 66.01221 32237 ft 396 kts 258°
2026-04-26 16:34 50.27536 65.92699 32237 ft 397 kts 258°
2026-04-26 16:34 50.26487 65.84270 32237 ft 396 kts 258°
2026-04-26 16:35 50.25424 65.75785 32237 ft 396 kts 258°
2026-04-26 16:35 50.24359 65.67339 32237 ft 392 kts 258°
2026-04-26 16:36 50.23303 65.59014 32238 ft 388 kts 258°
2026-04-26 16:36 50.22424 65.52126 32238 ft 390 kts 258°
2026-04-26 16:37 50.21354 65.43787 32237 ft 391 kts 258°
2026-04-26 16:37 50.20276 65.35430 32237 ft 391 kts 258°
2026-04-26 16:38 50.19179 65.27123 32237 ft 391 kts 257°
2026-04-26 16:38 50.18100 65.18768 32237 ft 389 kts 258°
2026-04-26 16:39 50.17017 65.10503 32237 ft 389 kts 257°
2026-04-26 16:39 50.15924 65.02248 32237 ft 389 kts 257°
2026-04-26 16:40 50.14638 64.92593 32372 ft 392 kts 258°
2026-04-26 16:40 50.14084 64.88417 32545 ft 393 kts 257°
2026-04-26 16:40 50.13712 64.85635 32629 ft 394 kts 257°
2026-04-26 16:41 50.12954 64.79986 32851 ft 394 kts 257°
2026-04-26 16:41 50.12576 64.77183 32969 ft 394 kts 257°
2026-04-26 16:41 50.11823 64.71603 33214 ft 394 kts 257°
2026-04-26 16:41 50.11442 64.68816 33329 ft 394 kts 257°
2026-04-26 16:42 50.10592 64.63264 33513 ft 395 kts 256°
2026-04-26 16:42 50.10147 64.60505 33617 ft 396 kts 256°
2026-04-26 16:42 50.09263 64.54923 33811 ft 396 kts 256°
2026-04-26 16:42 50.08828 64.52141 33905 ft 396 kts 256°
2026-04-26 16:43 50.07948 64.46546 34086 ft 397 kts 256°
2026-04-26 16:43 50.07510 64.43777 34173 ft 397 kts 256°
2026-04-26 16:43 50.06633 64.38235 34342 ft 398 kts 256°
2026-04-26 16:43 50.06189 64.35434 34425 ft 398 kts 256°
2026-04-26 16:44 50.05293 64.29795 34605 ft 399 kts 255°
2026-04-26 16:44 50.04626 64.25610 34734 ft 399 kts 255°
2026-04-26 16:44 50.03956 64.21416 34837 ft 400 kts 255°
2026-04-26 16:44 50.03282 64.17202 34958 ft 401 kts 255°
2026-04-26 16:45 50.02607 64.13000 35075 ft 401 kts 255°
2026-04-26 16:45 50.01927 64.08774 35188 ft 402 kts 255°
2026-04-26 16:45 50.01246 64.04556 35299 ft 402 kts 255°
2026-04-26 16:45 50.00562 64.00324 35406 ft 402 kts 255°
2026-04-26 16:46 49.99873 63.96077 35511 ft 403 kts 255°
2026-04-26 16:46 49.99196 63.91910 35611 ft 403 kts 255°
2026-04-26 16:46 49.98042 63.84834 35775 ft 404 kts 256°
2026-04-26 16:47 49.97120 63.79199 35900 ft 404 kts 256°
2026-04-26 16:47 49.96424 63.74965 35990 ft 405 kts 256°
2026-04-26 16:47 49.95009 63.66375 36077 ft 407 kts 256°
2026-04-26 16:48 49.93646 63.58145 36075 ft 408 kts 256°
2026-04-26 16:48 49.92228 63.49625 36075 ft 406 kts 256°
2026-04-26 16:49 49.90795 63.41058 36075 ft 405 kts 256°
2026-04-26 16:49 49.89359 63.32519 36088 ft 406 kts 255°
2026-04-26 16:50 49.87922 63.24013 36155 ft 406 kts 255°
2026-04-26 16:50 49.86480 63.15521 36156 ft 409 kts 255°
2026-04-26 16:51 49.85024 63.06988 36156 ft 409 kts 255°
2026-04-26 16:51 49.83597 62.98664 36156 ft 408 kts 255°
2026-04-26 16:52 49.82626 62.93023 36156 ft 407 kts 255°
2026-04-26 16:52 49.80654 62.81624 36156 ft 408 kts 255°
2026-04-26 16:53 49.79176 62.73125 36154 ft 408 kts 255°
2026-04-26 16:53 49.77681 62.64571 36157 ft 412 kts 255°
2026-04-26 16:54 49.76110 62.55954 36154 ft 412 kts 251°
2026-04-26 16:54 49.73524 62.48038 36155 ft 411 kts 236°
2026-04-26 16:55 49.69937 62.41230 36156 ft 407 kts 234°
2026-04-26 16:55 49.66434 62.34294 36157 ft 408 kts 234°
2026-04-26 16:56 49.61077 62.23940 36154 ft 411 kts 234°
2026-04-26 16:57 49.57479 62.17023 36156 ft 412 kts 234°
2026-04-26 16:57 49.52097 62.06743 36156 ft 412 kts 234°
2026-04-26 16:58 49.49672 62.02127 36156 ft 411 kts 234°
2026-04-26 16:59 49.43078 61.89623 36156 ft 411 kts 233°
2026-04-26 17:00 49.35816 61.75924 36156 ft 412 kts 233°
2026-04-26 17:00 49.30380 61.65715 36156 ft 413 kts 234°
2026-04-26 17:01 49.26726 61.58878 36156 ft 414 kts 234°
2026-04-26 17:01 49.23087 61.52087 36155 ft 410 kts 234°
2026-04-26 17:02 49.19489 61.45389 36156 ft 406 kts 234°
2026-04-26 17:02 49.15910 61.38739 36157 ft 407 kts 234°
2026-04-26 17:03 49.12293 61.32039 36156 ft 409 kts 233°
2026-04-26 17:03 49.08786 61.25559 36156 ft 409 kts 233°
2026-04-26 17:04 49.05391 61.19300 36156 ft 410 kts 233°
2026-04-26 17:04 49.01891 61.12862 36156 ft 410 kts 233°
2026-04-26 17:05 48.98254 61.06191 36156 ft 410 kts 233°
2026-04-26 17:05 48.94614 60.99531 36156 ft 410 kts 233°
2026-04-26 17:06 48.90969 60.92876 36156 ft 410 kts 233°
2026-04-26 17:06 48.87324 60.86241 36156 ft 410 kts 233°
2026-04-26 17:07 48.83793 60.79827 36156 ft 410 kts 233°
2026-04-26 17:07 48.80140 60.73210 36156 ft 410 kts 233°
2026-04-26 17:08 48.76467 60.66571 36156 ft 410 kts 233°
2026-04-26 17:08 48.72807 60.59974 36154 ft 407 kts 233°
2026-04-26 17:09 48.70383 60.55616 36155 ft 404 kts 233°
2026-04-26 17:09 48.65924 60.47609 36184 ft 405 kts 233°
2026-04-26 17:10 48.62302 60.41125 36183 ft 407 kts 233°
2026-04-26 17:10 48.58644 60.34596 36183 ft 406 kts 232°
2026-04-26 17:11 48.54991 60.28091 36183 ft 406 kts 232°
2026-04-26 17:11 48.51350 60.21621 36183 ft 407 kts 232°
2026-04-26 17:12 48.45841 60.11861 36183 ft 407 kts 232°
2026-04-26 17:13 48.40327 60.02131 36183 ft 407 kts 232°
2026-04-26 17:14 48.34828 59.92462 36183 ft 407 kts 232°
2026-04-26 17:14 48.29403 59.82956 36183 ft 407 kts 232°
2026-04-26 17:15 48.23982 59.73491 36184 ft 407 kts 232°
2026-04-26 17:16 48.20419 59.67288 36183 ft 407 kts 232°
2026-04-26 17:16 48.16821 59.61041 36183 ft 407 kts 232°
2026-04-26 17:17 48.13112 59.54615 36183 ft 407 kts 232°
2026-04-26 17:17 48.09378 59.48163 36183 ft 407 kts 232°
2026-04-26 17:18 48.05776 59.41951 36183 ft 407 kts 232°
2026-04-26 17:18 48.02027 59.35503 36183 ft 407 kts 232°
2026-04-26 17:19 47.96440 59.25923 36183 ft 408 kts 231°
2026-04-26 17:19 47.92693 59.19517 36183 ft 408 kts 231°
2026-04-26 17:20 47.90204 59.15270 36183 ft 408 kts 231°
2026-04-26 17:20 47.85191 59.06736 36183 ft 408 kts 231°
2026-04-26 17:21 47.81442 59.00372 36183 ft 408 kts 231°
2026-04-26 17:21 47.77687 58.94013 36183 ft 408 kts 231°
2026-04-26 17:22 47.73925 58.87658 36183 ft 408 kts 231°
2026-04-26 17:22 47.70166 58.81320 36183 ft 408 kts 231°
2026-04-26 17:23 47.66415 58.75015 36183 ft 408 kts 231°
2026-04-26 17:23 47.62638 58.68680 36184 ft 410 kts 231°
2026-04-26 17:24 47.58869 58.62372 36183 ft 411 kts 231°
2026-04-26 17:24 47.55095 58.56072 36183 ft 410 kts 231°
2026-04-26 17:25 47.51299 58.49750 36183 ft 410 kts 231°
2026-04-26 17:25 47.47511 58.43456 36183 ft 410 kts 231°
2026-04-26 17:26 47.43711 58.37156 36183 ft 410 kts 231°
2026-04-26 17:26 47.39917 58.30883 36183 ft 410 kts 231°
2026-04-26 17:27 47.36115 58.24608 36183 ft 410 kts 231°
2026-04-26 17:27 47.32282 58.18299 36183 ft 412 kts 231°
2026-04-26 17:28 47.28433 58.12000 36183 ft 412 kts 230°
2026-04-26 17:28 47.24689 58.06027 36183 ft 412 kts 230°
2026-04-26 17:29 47.22089 58.01879 36183 ft 410 kts 230°
2026-04-26 17:29 47.16962 57.93702 36183 ft 410 kts 230°
2026-04-26 17:30 47.13092 57.87548 36183 ft 410 kts 230°
2026-04-26 17:30 47.09213 57.81393 36183 ft 410 kts 230°
2026-04-26 17:31 47.05337 57.75256 36183 ft 410 kts 230°
2026-04-26 17:31 47.01471 57.69150 36183 ft 412 kts 230°
2026-04-26 17:32 46.97565 57.62993 36183 ft 412 kts 230°
2026-04-26 17:32 46.93655 57.56845 36183 ft 412 kts 230°
2026-04-26 17:33 46.89755 57.50727 36183 ft 412 kts 230°
2026-04-26 17:34 46.83920 57.41600 36183 ft 412 kts 230°
2026-04-26 17:34 46.80009 57.35501 36183 ft 412 kts 230°
2026-04-26 17:35 46.76086 57.29395 36183 ft 412 kts 230°
2026-04-26 17:35 46.72170 57.23315 36183 ft 413 kts 230°
2026-04-26 17:36 46.68230 57.17211 36183 ft 413 kts 230°
2026-04-26 17:36 46.64317 57.11163 36183 ft 412 kts 230°
2026-04-26 17:37 46.60386 57.05100 36183 ft 412 kts 230°
2026-04-26 17:37 46.56446 56.99039 36156 ft 412 kts 230°
2026-04-26 17:38 46.50536 56.89970 36156 ft 412 kts 230°
2026-04-26 17:38 46.46474 56.84094 36156 ft 415 kts 224°
2026-04-26 17:39 46.42050 56.78740 36156 ft 415 kts 224°
2026-04-26 17:39 46.37680 56.73311 36156 ft 415 kts 224°
2026-04-26 17:40 46.34764 56.69701 36156 ft 415 kts 224°
2026-04-26 17:40 46.28941 56.62511 36156 ft 415 kts 224°
2026-04-26 17:41 46.24556 56.57105 36156 ft 415 kts 224°
2026-04-26 17:41 46.20192 56.51736 36156 ft 413 kts 224°
2026-04-26 17:42 46.16538 56.47249 36156 ft 413 kts 224°
2026-04-26 17:42 46.11431 56.40990 36156 ft 413 kts 224°
2026-04-26 17:43 46.07055 56.35640 36156 ft 414 kts 224°
2026-04-26 17:43 46.03380 56.31155 36156 ft 414 kts 224°
2026-04-26 17:44 45.98387 56.25076 36156 ft 414 kts 224°
2026-04-26 17:44 45.95002 56.20963 36156 ft 414 kts 224°
2026-04-26 17:45 45.90169 56.15102 36156 ft 414 kts 224°
2026-04-26 17:45 45.85894 56.09929 36156 ft 414 kts 224°
2026-04-26 17:46 45.81510 56.04636 36156 ft 414 kts 224°
2026-04-26 17:46 45.77970 56.00370 36156 ft 414 kts 224°
2026-04-26 17:47 45.74415 55.96094 36156 ft 414 kts 224°
2026-04-26 17:47 45.68831 55.89393 36156 ft 411 kts 224°
2026-04-26 17:48 45.64571 55.84290 36156 ft 411 kts 224°
2026-04-26 17:48 45.61059 55.80092 36156 ft 412 kts 224°
2026-04-26 17:49 45.57704 55.76089 36156 ft 412 kts 224°
2026-04-26 17:49 45.52694 55.70121 36156 ft 414 kts 224°
2026-04-26 17:50 45.48759 55.65445 36156 ft 414 kts 224°
2026-04-26 17:50 45.44567 55.60474 36156 ft 414 kts 224°
2026-04-26 17:51 45.40297 55.55419 36156 ft 413 kts 224°
2026-04-26 17:51 45.35854 55.50172 36156 ft 413 kts 224°
2026-04-26 17:52 45.32192 55.45855 36156 ft 414 kts 224°
2026-04-26 17:52 45.27022 55.39773 36156 ft 414 kts 224°
2026-04-26 17:53 45.22602 55.34587 36157 ft 413 kts 223°
2026-04-26 17:54 45.16107 55.26985 36156 ft 412 kts 223°
2026-04-26 17:54 45.11694 55.21830 36156 ft 412 kts 223°
2026-04-26 17:55 45.07264 55.16609 36156 ft 412 kts 225°
2026-04-26 17:55 45.03077 55.11097 36121 ft 412 kts 226°
2026-04-26 17:56 44.98845 55.05582 36102 ft 411 kts 226°
2026-04-26 17:57 44.90407 54.94649 36102 ft 411 kts 226°
2026-04-26 17:57 44.86163 54.89174 36102 ft 412 kts 226°
2026-04-26 17:58 44.77744 54.78350 36102 ft 411 kts 226°
2026-04-26 17:59 44.72097 54.71117 36100 ft 407 kts 226°
2026-04-26 17:59 44.67929 54.65792 36102 ft 404 kts 226°
2026-04-26 18:00 44.63032 54.59545 36102 ft 408 kts 227°
2026-04-26 18:00 44.58780 54.54132 36103 ft 414 kts 226°
2026-04-26 18:01 44.54487 54.48683 36102 ft 414 kts 226°
2026-04-26 18:01 44.50249 54.43315 36102 ft 412 kts 226°
2026-04-26 18:02 44.47402 54.39713 36102 ft 412 kts 226°
2026-04-26 18:02 44.41722 54.32543 36102 ft 413 kts 226°
2026-04-26 18:03 44.37453 54.27168 36102 ft 413 kts 226°
2026-04-26 18:03 44.33194 54.21812 36102 ft 413 kts 226°
2026-04-26 18:04 44.28894 54.16419 36102 ft 413 kts 226°
2026-04-26 18:05 44.22446 54.08356 36101 ft 412 kts 226°
2026-04-26 18:05 44.18183 54.03038 36102 ft 411 kts 226°
2026-04-26 18:06 44.13910 53.97717 36102 ft 411 kts 226°
2026-04-26 18:06 44.09633 53.92401 36102 ft 412 kts 226°
2026-04-26 18:07 44.05323 53.87058 36102 ft 412 kts 226°
2026-04-26 18:07 44.01020 53.81733 36102 ft 412 kts 226°
2026-04-26 18:08 43.96747 53.76454 36102 ft 412 kts 226°
2026-04-26 18:08 43.92473 53.71184 36102 ft 411 kts 226°
2026-04-26 18:09 43.88187 53.65913 36102 ft 411 kts 226°
2026-04-26 18:09 43.84190 53.61008 36102 ft 411 kts 226°
2026-04-26 18:10 43.80060 53.55947 36102 ft 411 kts 226°
2026-04-26 18:10 43.75749 53.50675 36102 ft 411 kts 226°
2026-04-26 18:11 43.71467 53.45449 36101 ft 408 kts 226°
2026-04-26 18:11 43.67228 53.40287 36101 ft 404 kts 226°
2026-04-26 18:12 43.63003 53.35150 36102 ft 404 kts 226°
2026-04-26 18:12 43.58756 53.29995 36102 ft 406 kts 225°
2026-04-26 18:13 43.54644 53.25015 36102 ft 406 kts 225°
2026-04-26 18:13 43.50373 53.19850 36102 ft 407 kts 225°
2026-04-26 18:14 43.46105 53.14705 36102 ft 407 kts 225°
2026-04-26 18:14 43.41854 53.09589 36102 ft 407 kts 225°
2026-04-26 18:15 43.37763 53.04673 36102 ft 407 kts 225°
2026-04-26 18:15 43.33485 52.99543 36102 ft 407 kts 225°
2026-04-26 18:16 43.29229 52.94449 36102 ft 407 kts 225°
2026-04-26 18:16 43.23705 52.87853 36102 ft 407 kts 225°
2026-04-26 18:17 43.18698 52.81888 36102 ft 406 kts 225°
2026-04-26 18:17 43.14582 52.76994 36102 ft 406 kts 225°
2026-04-26 18:18 43.10307 52.71920 36102 ft 406 kts 225°
2026-04-26 18:18 43.06042 52.66869 36102 ft 406 kts 225°
2026-04-26 18:19 43.01918 52.61993 36102 ft 406 kts 225°
2026-04-26 18:19 42.97638 52.56943 36102 ft 406 kts 225°
2026-04-26 18:20 42.96206 52.55255 36102 ft 406 kts 225°